Location: Ffm
(50.0000°N, 8.5000°E)
Time: 10:33:03
(UTC+01:00)

Envisat - Visible Passes

Search period start: 27 October 2020 00:00
Search period end: 06 November 2020 00:00
Orbit: 764 x 766 km, 98.1° (Epoch: 26 October)

Date Brightness Start Highest point End Pass type
(mag) Time Alt. Az. Time Alt. Az. Time Alt. Az.
27 Oct 3.7 06:19:39 10° NNE 06:24:42 61° E 06:29:43 10° S visible
27 Oct 3.5 17:38:43 10° S 17:43:46 68° WSW 17:48:52 10° NNW visible
27 Oct 6.6 19:23:28 10° W 19:23:46 10° W 19:24:06 10° W visible
28 Oct 5.1 05:43:12 10° NNE 05:47:41 30° E 05:52:08 10° SSE visible
28 Oct 5.8 18:42:37 10° SW 18:46:26 21° W 18:50:17 10° NW visible
29 Oct 6.2 05:07:30 10° NE 05:10:28 15° E 05:13:24 10° ESE visible
29 Oct 4.5 18:04:31 10° SSW 18:09:19 41° W 18:14:08 10° NNW visible
30 Oct 4.1 06:08:20 10° NNE 06:13:17 49° E 06:18:12 10° S visible
30 Oct 6.4 19:09:58 10° WSW 19:12:13 13° W 19:14:29 10° WNW visible
31 Oct 5.5 05:32:03 10° NE 05:36:12 25° E 05:40:21 10° SSE visible
31 Oct 5.4 18:30:45 10° SSW 18:34:57 26° W 18:39:11 10° NW visible
01 Nov 6.4 04:56:52 10° ENE 04:58:55 12° E 05:00:58 10° ESE visible
01 Nov 3.2 06:33:40 10° NNE 06:38:47 80° ESE 06:43:52 10° SSW visible
01 Nov 4.0 17:52:57 10° S 17:57:53 51° W 18:02:51 10° NNW visible
02 Nov 4.5 05:57:04 10° NNE 06:01:51 40° E 06:06:36 10° SSE visible
02 Nov 6.1 18:57:36 10° SW 19:00:40 16° W 19:03:46 10° NW visible
03 Nov 5.8 05:20:58 10° NE 05:24:42 20° E 05:28:27 10° SE visible
03 Nov 5.0 18:18:59 10° SSW 18:23:28 31° W 18:28:00 10° NNW visible
04 Nov 3.5 06:22:19 10° NNE 06:27:24 65° ESE 06:32:26 10° S visible
04 Nov 3.6 17:41:26 10° S 17:46:28 63° WSW 17:51:31 10° NNW visible
05 Nov 4.9 05:45:49 10° NNE 05:50:24 32° E 05:54:56 10° SSE visible
05 Nov 5.8 18:45:31 10° SW 18:49:10 20° W 18:52:50 10° NW visible
